GLO1000 SBSP-SBRJ

Flight info

Callsign GLO1000
Flight time 0h 34m
Altitude 27000
Route NIBRU UZ171 KEVUN
Aircraft B738/M-SDE2E3FGHIRWXY/LB1

Departure

Time 2026-05-01 10:08
Airport Congonhas–Deputado Freitas Nobre Airport (SBSP)

Arrival

Time 2026-05-01 10:42
Airport Santos Dumont Airport (SBRJ)
Time Latitude Longitude Altitude Speed Heading
2026-05-01 09:58 -23.62395 -46.66046 2606 ft 0 kts 231°
2026-05-01 10:04 -23.62385 -46.66033 2579 ft 4 kts 228°
2026-05-01 10:04 -23.62366 -46.66016 2606 ft 4 kts 185°
2026-05-01 10:04 -23.62347 -46.66023 2606 ft 4 kts 147°
2026-05-01 10:05 -23.62335 -46.66031 2605 ft 0 kts 148°
2026-05-01 10:06 -23.62324 -46.66007 2605 ft 7 kts 26°
2026-05-01 10:06 -23.62236 -46.66048 2602 ft 22 kts 332°
2026-05-01 10:07 -23.62086 -46.66137 2587 ft 25 kts 350°
2026-05-01 10:07 -23.62045 -46.66075 2592 ft 11 kts 147°
2026-05-01 10:07 -23.62294 -46.65904 2605 ft 84 kts 147°
2026-05-01 10:07 -23.63005 -46.65410 2637 ft 156 kts 147°
2026-05-01 10:08 -23.65022 -46.63816 3951 ft 200 kts 123°
2026-05-01 10:08 -23.65666 -46.62441 4613 ft 213 kts 114°
2026-05-01 10:08 -23.66380 -46.60905 4965 ft 238 kts 115°
2026-05-01 10:09 -23.67171 -46.59264 5539 ft 254 kts 116°
2026-05-01 10:09 -23.68035 -46.57492 6020 ft 274 kts 116°
2026-05-01 10:09 -23.68952 -46.55627 6871 ft 283 kts 117°
2026-05-01 10:09 -23.69892 -46.53719 7881 ft 285 kts 117°
2026-05-01 10:10 -23.70842 -46.51796 8808 ft 291 kts 117°
2026-05-01 10:10 -23.71727 -46.49823 9770 ft 295 kts 107°
2026-05-01 10:10 -23.71634 -46.45226 10950 ft 328 kts 81°
2026-05-01 10:11 -23.71250 -46.42662 11155 ft 355 kts 80°
2026-05-01 10:11 -23.70829 -46.39970 11775 ft 363 kts 80°
2026-05-01 10:11 -23.70408 -46.37226 12493 ft 369 kts 80°
2026-05-01 10:11 -23.69990 -46.34436 13183 ft 376 kts 81°
2026-05-01 10:12 -23.69577 -46.31607 13878 ft 381 kts 81°
2026-05-01 10:12 -23.69304 -46.29714 14292 ft 385 kts 81°
2026-05-01 10:12 -23.68327 -46.22887 15763 ft 395 kts 81°
2026-05-01 10:13 -23.67901 -46.19909 16375 ft 399 kts 81°
2026-05-01 10:13 -23.67469 -46.16894 16987 ft 404 kts 81°
2026-05-01 10:13 -23.67030 -46.13836 17622 ft 408 kts 80°
2026-05-01 10:14 -23.66147 -46.07698 18751 ft 417 kts 80°
2026-05-01 10:14 -23.65696 -46.04558 19280 ft 420 kts 80°
2026-05-01 10:14 -23.65241 -46.01398 19832 ft 423 kts 80°
2026-05-01 10:14 -23.64782 -45.98213 20358 ft 427 kts 80°
2026-05-01 10:15 -23.64320 -45.95006 20874 ft 430 kts 80°
2026-05-01 10:15 -23.63853 -45.91774 21376 ft 433 kts 80°
2026-05-01 10:15 -23.63382 -45.88519 21881 ft 437 kts 80°
2026-05-01 10:15 -23.62906 -45.85234 22366 ft 440 kts 80°
2026-05-01 10:16 -23.62427 -45.81927 22849 ft 444 kts 80°
2026-05-01 10:16 -23.61941 -45.78590 23332 ft 447 kts 80°
2026-05-01 10:16 -23.60959 -45.71845 24162 ft 454 kts 80°
2026-05-01 10:17 -23.60461 -45.68433 24505 ft 457 kts 80°
2026-05-01 10:17 -23.59622 -45.62703 25103 ft 463 kts 80°
2026-05-01 10:17 -23.59112 -45.59222 25469 ft 466 kts 80°
2026-05-01 10:18 -23.58080 -45.52199 26176 ft 472 kts 80°
2026-05-01 10:18 -23.57561 -45.48673 26635 ft 472 kts 80°
2026-05-01 10:18 -23.57004 -45.45143 27070 ft 474 kts 78°
2026-05-01 10:19 -23.56319 -45.41647 27175 ft 480 kts 76°
2026-05-01 10:19 -23.55533 -45.38032 27183 ft 488 kts 75°
2026-05-01 10:19 -23.54735 -45.34468 27193 ft 493 kts 75°
2026-05-01 10:20 -23.53122 -45.27152 27189 ft 498 kts 76°
2026-05-01 10:20 -23.52332 -45.23481 27181 ft 499 kts 76°
2026-05-01 10:20 -23.51550 -45.19810 27177 ft 500 kts 76°
2026-05-01 10:20 -23.50766 -45.16119 27178 ft 500 kts 76°
2026-05-01 10:21 -23.49981 -45.12423 27168 ft 501 kts 76°
2026-05-01 10:21 -23.48405 -45.05032 27171 ft 500 kts 76°
2026-05-01 10:21 -23.47616 -45.01341 27170 ft 500 kts 76°
2026-05-01 10:22 -23.46035 -44.93975 27172 ft 498 kts 76°
2026-05-01 10:22 -23.44420 -44.86660 26431 ft 491 kts 75°
2026-05-01 10:23 -23.43622 -44.83086 25816 ft 484 kts 75°
2026-05-01 10:23 -23.42046 -44.76034 24549 ft 473 kts 76°
2026-05-01 10:23 -23.41282 -44.72612 23919 ft 468 kts 76°
2026-05-01 10:24 -23.39763 -44.65804 22528 ft 458 kts 76°
2026-05-01 10:24 -23.38273 -44.59136 21252 ft 446 kts 76°
2026-05-01 10:25 -23.36819 -44.52647 20039 ft 437 kts 76°
2026-05-01 10:25 -23.35389 -44.46274 18810 ft 430 kts 76°
2026-05-01 10:26 -23.34681 -44.43129 18165 ft 426 kts 75°
2026-05-01 10:26 -23.33769 -44.40087 17519 ft 421 kts 66°
2026-05-01 10:26 -23.31270 -44.34401 16329 ft 411 kts 63°
2026-05-01 10:27 -23.28791 -44.28913 15165 ft 403 kts 64°
2026-05-01 10:27 -23.26410 -44.23458 13998 ft 396 kts 64°
2026-05-01 10:28 -23.25241 -44.20749 13372 ft 392 kts 64°
2026-05-01 10:28 -23.22966 -44.15459 12224 ft 381 kts 64°
2026-05-01 10:28 -23.21846 -44.12861 11670 ft 376 kts 64°
2026-05-01 10:29 -23.19684 -44.07857 11141 ft 351 kts 64°
2026-05-01 10:29 -23.18624 -44.05519 10948 ft 339 kts 63°
2026-05-01 10:30 -23.16587 -44.01123 10599 ft 319 kts 62°
2026-05-01 10:30 -23.14641 -43.96779 10282 ft 325 kts 64°
2026-05-01 10:31 -23.12726 -43.92270 9906 ft 329 kts 65°
2026-05-01 10:31 -23.10797 -43.87784 9363 ft 324 kts 64°
2026-05-01 10:32 -23.08890 -43.83379 8967 ft 323 kts 64°
2026-05-01 10:32 -23.07939 -43.81181 8777 ft 322 kts 64°
2026-05-01 10:32 -23.06036 -43.76781 8386 ft 321 kts 64°
2026-05-01 10:33 -23.04142 -43.72403 8002 ft 319 kts 65°
2026-05-01 10:33 -23.02256 -43.68045 7623 ft 317 kts 65°
2026-05-01 10:34 -23.01323 -43.65892 7439 ft 315 kts 65°
2026-05-01 10:34 -23.00391 -43.63741 7184 ft 316 kts 65°
2026-05-01 10:34 -22.99456 -43.61584 6943 ft 315 kts 65°
2026-05-01 10:35 -22.97603 -43.57312 6568 ft 310 kts 65°
2026-05-01 10:35 -22.96697 -43.55212 6390 ft 306 kts 66°
2026-05-01 10:35 -22.95797 -43.53128 6155 ft 303 kts 65°
2026-05-01 10:35 -22.94993 -43.51066 5972 ft 300 kts 71°
2026-05-01 10:36 -22.93090 -43.46997 5402 ft 307 kts 62°
2026-05-01 10:36 -22.92165 -43.44912 5083 ft 306 kts 66°
2026-05-01 10:36 -22.91315 -43.42812 4745 ft 302 kts 67°
2026-05-01 10:37 -22.90485 -43.40739 4405 ft 298 kts 67°
2026-05-01 10:37 -22.88812 -43.36737 3778 ft 279 kts 66°
2026-05-01 10:37 -22.88047 -43.34867 3495 ft 266 kts 70°
2026-05-01 10:38 -22.87445 -43.33011 3214 ft 255 kts 72°
2026-05-01 10:38 -22.86893 -43.31238 2974 ft 240 kts 72°
2026-05-01 10:38 -22.86372 -43.29584 2715 ft 224 kts 71°
2026-05-01 10:38 -22.85884 -43.28053 2486 ft 205 kts 71°
2026-05-01 10:39 -22.85489 -43.26632 2238 ft 192 kts 83°
2026-05-01 10:39 -22.85624 -43.25241 2000 ft 180 kts 100°
2026-05-01 10:39 -22.85818 -43.23942 1774 ft 170 kts 98°
2026-05-01 10:39 -22.85986 -43.22747 1619 ft 155 kts 98°
2026-05-01 10:40 -22.86146 -43.21616 1366 ft 146 kts 98°
2026-05-01 10:40 -22.86298 -43.20536 1193 ft 147 kts 98°
2026-05-01 10:40 -22.86455 -43.19444 978 ft 147 kts 100°
2026-05-01 10:40 -22.86706 -43.18365 758 ft 145 kts 108°
2026-05-01 10:41 -22.87110 -43.17397 684 ft 146 kts 121°
2026-05-01 10:41 -22.87760 -43.16585 608 ft 143 kts 141°
2026-05-01 10:41 -22.89671 -43.16312 239 ft 146 kts 186°
2026-05-01 10:42 -22.90666 -43.16304 30 ft 139 kts 175°
2026-05-01 10:42 -22.91344 -43.16262 23 ft 45 kts 177°
2026-05-01 10:42 -22.91511 -43.16263 23 ft 15 kts 212°
2026-05-01 10:42 -22.91523 -43.16373 29 ft 15 kts 284°
2026-05-01 10:43 -22.91453 -43.16451 28 ft 14 kts 317°
2026-05-01 10:43 -22.91371 -43.16502 29 ft 14 kts 357°
2026-05-01 10:43 -22.91277 -43.16507 29 ft 14 kts 357°
2026-05-01 10:43 -22.91178 -43.16514 29 ft 14 kts 355°
2026-05-01 10:44 -22.91101 -43.16531 29 ft 7 kts 317°
2026-05-01 10:44 -22.91096 -43.16573 29 ft 2 kts 267°
2026-05-01 10:44 -22.91097 -43.16585 29 ft 0 kts 266°